COSMOS 2251 DEB, 36073

Orbit data source: Space-Track

COSMOS 2251 DEB, 36073 is space debris in LEO originally from a launch on Wed, 16 Jun 1993 UTC launched from the Plesetsk Missile And Space Complex (PKMTR). The debris from Iridium 33, an American commercial communications satellite, has been tracked extensively since its accidental collision with the defunct Russian satellite Cosmos 2251 in 2009. This event, occurring at high speed in low Earth orbit (LEO), generated thousands of pieces of space debris, significantly increasing the risk of further collisions. The Iridium 33 debris cloud has impacted space traffic management and orbital debris mitigation strategies, making it a subject of ongoing study in space situational awareness.

Loading next visibility...
Identifier
36073, 1993-036AYL
Orbit
LEO
Country
Flag of CISCIS
Related business
Manufacturer
Unknown
Mission
Spacecraft
Bus & Motor
Unknown
Mass
Unknown
Launch date (UTC)
1993-06-16 (33 years ago)
Launch vehicle
Unknown
Launch site
Plesetsk Missile And Space Complex (PKMTR)
Object type
Payload
Rocket body
Debris
Shape & HBR
Unknown shape, 0.1 m
Radar Cross Section
Small (<0.1 m²)

Expand to show TLE details & history
Last TLE update: 2 days ago

TLE from 2 days ago
0 COSMOS 2251 DEB
1 36073U 93036AYL 26060.99193729  .00000732  00000-0  26501-3 0  9992
2 36073  74.0330 177.2671 0025672 231.4539 128.4312 14.35071137713440
Epoch: 2026-03-01T23:48Z
TLE epoch observation values (Epoch: 2026-03-01T23:48:23.381Z)
Latitude
-0.00011°
Longitude
20.37789°
Altitude
788.885 km
Speed
7.453 km/s
True Right ascension
11h 49m 04s
True Declination
0° 00' 00"
Sunlit
Object was in full shadow at epoch
Visualization orbit readout
Latitude
Unknown
Longitude
Unknown
Altitude
Unknown
Speed
Unknown
Apparent Right ascension
Unknown
Apparent Declination
Unknown
Sunlit
N/A
Visualization observer readout
Local Sidereal Time
14:59:15
Azimuth
Unknown
Elevation
Unknown
Doppler factor
Unknown
Orbital elements
Apogee altitude
790.812 km
Perigee altitude
754.098 km
Semi-major axis
7,150.592 km
Eccentricity
0.00257
Inclination
74.033°
RAAN
177.2671°
Arg. of periapsis
231.4539°
True anomaly
128.66119°
Mean anomaly
128.4312°
Eccentric anomaly
128.54624°
Mean motion
3.58947 °/min
Orbital period
100.29 mins
BSTAR
0.00026501

Documentation

Showing up to 5 results
|